Location: Kalberh�ni
(46.4610°N, 7.2453°E)
Time: 17:28:43
(UTC+00:00)

Meteor 2-1 Rocket - Pass Details

Date: 31 October 2021
Orbit: 830 x 906 km, 81.3° (Epoch: 28 November)

Event Time Altitude Azimuth Distance (km) Brightness Sun altitude
Rises 05:33:06 0° 346° (NNW) 3,393 7.1 -7.1°
Reaches altitude 10° 05:35:31 10° 344° (NNW) 2,460 6.3 -6.7°
Maximum altitude 05:41:02 67° 263° (W) 913 4.2 -5.8°
Drops below altitude 10° 05:46:36 10° 182° (S) 2,482 6.8 -4.9°
Sets 05:49:03 0° 179° (S) 3,426 7.6 -4.5°
